Location: Newark
(46.3833°N, 12.2833°E)
Time: 05:44:10
(UTC+00:00)

BEESAT 2 - Visible Passes

Search period start: 20 October 2019 00:00
Search period end: 30 October 2019 00:00
Orbit: 495 x 534 km, 64.9° (Epoch: 19 October)

Date Brightness Start Highest point End Pass type
(mag) Time Alt. Az. Time Alt. Az. Time Alt. Az.
26 Oct ? 05:02:53 10° NNW 05:06:35 33° NE 05:10:14 10° ESE visible
27 Oct ? 04:46:46 10° NNW 04:50:28 33° NE 04:54:08 10° ESE visible
28 Oct ? 04:30:40 10° NNW 04:34:22 34° NE 04:38:02 10° ESE visible
29 Oct ? 04:14:33 10° NNW 04:18:16 34° NE 04:21:56 10° ESE visible
